[[{"header":{"parameterUnit":"m.s-1","parameterCategory":1,"la1":30.2991,"la2":30.254,"lo1":-89.0895,"lo2":-89.0444,"dy":0.0017,"dx":0.0017,"nx":28,"ny":28,"refTime":"2025-05-17T09:00:00:Z","depth":0,"parameterNumber":2,"parameterNumberName":"U-component_of_WINDS"},"data":[0,0,0,0,0,0,0,0,0,0,0,0,0,0,0,0,0,0,0,0,0,0,0,0,0,0,0,0,0,0,0,0,0,0,0,0,0,0,0,0,0,0,0,0,0,0,0,0,0,0,0,0,0,0,0,0,0,0,-0.4945,-0.4945,0,-0.4895,-0.4895,-0.4894,-0.4875,-0.4875,-0.4875,-0.4875,-0.4824,-0.4823,-0.4822,0,0,0,0,0,0,0,0,0,0,0,0,0,-0.5025,-0.5024,-0.4945,-0.4945,-0.4944,-0.4895,-0.4895,-0.4894,-0.4875,-0.4875,-0.4875,-0.4875,-0.4825,-0.4823,-0.4821,0,0,0,0,0,0,0,0,0,0,0,0,0,-0.4984,-0.5023,-0.4945,-0.4929,-0.4927,-0.4895,-0.4895,-0.4894,-0.4875,-0.4875,-0.4875,-0.4875,-0.4825,-0.4823,-0.4821,-0.4803,0,0,-0.4814,-0.4813,0,0,0,0,0,0,0,0,-0.4987,-0.4981,-0.4932,-0.493,-0.4927,-0.4891,-0.4904,-0.4863,-0.4875,-0.4894,-0.4875,-0.4875,-0.4847,-0.4843,-0.4833,-0.4801,-0.4799,-0.4814,-0.4813,-0.4812,-0.4811,0,0,0,0,0,0,0,-0.4989,-0.4983,-0.4925,-0.4931,-0.4928,-0.4924,-0.4918,-0.4896,-0.487,-0.4893,-0.4891,-0.4886,-0.4845,-0.4835,-0.4831,-0.4798,-0.4814,-0.4812,-0.4811,-0.481,-0.4749,-0.4749,0,0,0,0,0,0,-0.4995,-0.4986,-0.4927,-0.4924,-0.4958,-0.4922,-0.4916,-0.4903,-0.487,-0.4865,-0.4885,-0.4885,-0.4839,-0.4834,-0.483,-0.4807,-0.4812,-0.481,-0.4808,-0.475,-0.4749,-0.4749,0,0,0,0,0,0,-0.4997,-0.499,-0.4929,-0.4954,-0.4946,-0.4921,-0.4906,-0.4902,-0.4891,-0.4865,-0.486,-0.4879,-0.4839,-0.4833,-0.481,-0.4805,-0.4809,-0.4807,-0.475,-0.4749,-0.4749,-0.4761,0,0,0,0,0,0,-0.4999,-0.4991,-0.4983,-0.4954,-0.4945,-0.491,-0.4906,-0.4901,-0.4887,-0.4886,-0.4858,-0.4853,-0.4838,-0.4813,-0.4808,-0.4802,-0.4805,-0.475,-0.475,-0.4749,-0.4761,-0.4761,-0.4761,0,0,0,0,0,-0.5002,-0.4989,-0.4983,-0.4976,-0.4935,-0.491,-0.4904,-0.4887,-0.4887,-0.488,-0.4863,-0.4854,-0.4806,-0.4811,-0.4805,-0.4798,-0.4751,-0.475,-0.4749,-0.4761,-0.4761,-0.4761,0,0,0,0,0,0,-0.5017,-0.4984,-0.4978,-0.4955,-0.4935,-0.4906,-0.4896,-0.4888,-0.4868,-0.4868,-0.4848,-0.4842,-0.4821,-0.4807,-0.4813,-0.4779,-0.4778,-0.4776,-0.4789,-0.4788,-0.4789,-0.4792,-0.4803,0,0,0,0,0,-0.5018,-0.5,-0.4972,-0.4954,-0.4945,-0.4922,-0.4911,-0.4899,-0.4878,-0.487,-0.4851,-0.4832,-0.4812,-0.48,-0.478,-0.4759,-0.4752,-0.4751,-0.4751,-0.4751,-0.475,-0.4738,-0.4737,-0.4747,-0.4747,-0.4747,0,0,-0.5019,-0.4999,-0.4989,-0.4957,-0.494,-0.4922,-0.4916,-0.4896,-0.4883,-0.4867,-0.4844,-0.483,-0.4807,-0.4785,-0.4774,-0.4773,-0.4746,-0.475,-0.4751,-0.4749,-0.4737,-0.4736,-0.4735,-0.4746,-0.4747,-0.4747,0,0,-0.5012,-0.4995,-0.4978,-0.4962,-0.4937,-0.4922,-0.4919,-0.4891,-0.4881,-0.4858,-0.4846,-0.483,-0.4797,-0.4781,-0.4768,-0.4756,-0.4748,-0.475,-0.475,-0.4739,-0.4738,-0.4737,-0.4733,-0.4732,-0.4749,-0.4749,-0.4749,0,-0.5017,-0.4988,-0.4971,-0.4952,-0.4939,-0.4924,-0.4907,-0.4892,-0.4863,-0.4854,-0.4853,-0.4811,-0.4794,-0.4769,-0.4766,-0.4756,-0.4751,-0.4753,-0.474,-0.4739,-0.4738,-0.4733,-0.4732,-0.4749,-0.4749,-0.4749,-0.4749,0,-0.4995,-0.4976,-0.4966,-0.4937,-0.4923,-0.4905,-0.4885,-0.4873,-0.4863,-0.4849,-0.4826,-0.4805,-0.4782,-0.4775,-0.4765,-0.4748,-0.4748,-0.4744,-0.4742,-0.4737,-0.4733,-0.4731,-0.475,-0.475,-0.475,-0.475,0,0,-0.4996,-0.4958,-0.4955,-0.4942,-0.4914,-0.4899,-0.4881,-0.4858,-0.4848,-0.4828,-0.4813,-0.4785,-0.4781,-0.4767,-0.4756,-0.4746,-0.4738,-0.4743,-0.4742,-0.4742,-0.4718,-0.4721,-0.4719,-0.4732,-0.4732,-0.4731,-0.472,0,-0.4985,-0.4952,-0.4936,-0.491,-0.4892,-0.4878,-0.4863,-0.4844,-0.4831,-0.4814,-0.4799,-0.478,-0.4776,-0.4767,-0.4757,-0.4741,-0.4732,-0.4741,-0.4718,-0.4717,-0.4724,-0.4717,-0.472,-0.471,-0.4718,-0.4718,-0.4717,0,-0.4967,-0.4948,-0.492,-0.4895,-0.4887,-0.4873,-0.4851,-0.4835,-0.4814,-0.4805,-0.4789,-0.4778,-0.4759,-0.4759,-0.4733,-0.474,-0.473,-0.472,-0.472,-0.4716,-0.4717,-0.4714,-0.4706,-0.4705,-0.4714,-0.4715,-0.4715,0,-0.4971,-0.4937,-0.4917,-0.4906,-0.4876,-0.4866,-0.4854,-0.4833,-0.482,-0.4801,-0.4792,-0.4771,-0.476,-0.4744,-0.4728,-0.4729,-0.4703,-0.4702,-0.4696,-0.4696,-0.469,-0.4691,-0.4681,-0.4684,-0.4684,-0.4684,-0.4684,0,-0.496,-0.4944,-0.4918,-0.4905,-0.4886,-0.4868,-0.4851,-0.4837,-0.4819,-0.4803,-0.479,-0.4776,-0.4755,-0.4739,-0.4726,-0.4707,-0.4702,-0.4694,-0.4691,-0.4695,-0.4696,-0.4688,-0.4688,-0.4684,-0.4684,-0.4684,-0.4684,0,-0.496,-0.4942,-0.4918,-0.4892,-0.4885,-0.4872,-0.485,-0.4837,-0.4823,-0.4804,-0.4799,-0.4777,-0.4757,-0.4739,-0.4712,-0.4704,-0.4684,-0.468,-0.4691,-0.4689,-0.4684,-0.4685,-0.4668,-0.4665,-0.467,-0.467,-0.467,0,-0.4954,-0.4942,-0.4914,-0.4902,-0.4889,-0.4871,-0.4858,-0.484,-0.4828,-0.4803,-0.4793,-0.4772,-0.4755,-0.4724,-0.4705,-0.4685,-0.4681,-0.4676,-0.4678,-0.4682,-0.4681,-0.4681,-0.468,-0.4676,-0.4676,-0.4676,-0.4676,0,-0.4946,-0.4938,-0.492,-0.4898,-0.4883,-0.4865,-0.4847,-0.4839,-0.4818,-0.4804,-0.4783,-0.477,-0.4743,-0.4722,-0.47,-0.4687,-0.4679,-0.4676,-0.4674,-0.4678,-0.4685,-0.4681,-0.4691,-0.4677,-0.4677,-0.4677,-0.4677,-0.4677,-0.4943,-0.4931,-0.491,-0.489,-0.4875,-0.4858,-0.4845,-0.483,-0.4812,-0.4788,-0.4779,-0.4758,-0.4738,-0.4708,-0.4695,-0.4678,-0.4677,-0.4673,-0.4672,-0.4671,-0.4672,-0.4688,-0.4674,-0.4674,-0.4674,-0.4674,-0.4674,0,-0.4934,-0.492,-0.4902,-0.4877,-0.4862,-0.4855,-0.4835,-0.4822,-0.4804,-0.4786,-0.4768,-0.4745,-0.4725,-0.4706,-0.4685,-0.4676,-0.4671,-0.4671,-0.4671,-0.4669,-0.4675,-0.4679,-0.4675,-0.4675,-0.4675,-0.4675,-0.4675,-0.4675,-0.4928,-0.4907,-0.4897,-0.4869,-0.4855,-0.4834,-0.4823,-0.4808,-0.4793,-0.4768,-0.4751,-0.4739,-0.472,-0.4698,-0.468,-0.4675,-0.4668,-0.4669,-0.4662,-0.4668,-0.4668,-0.4668,-0.4672,-0.4667,-0.4667,-0.4658,-0.4658,-0.4658]},{"header":{"parameterUnit":"m.s-1","parameterCategory":1,"la1":30.2991,"la2":30.254,"lo1":-89.0895,"lo2":-89.0444,"dy":0.0017,"dx":0.0017,"nx":28,"ny":28,"refTime":"2025-05-17T09:00:00:Z","depth":0,"parameterNumber":3,"parameterNumberName":"V-component_of_WINDS"},"data":[0,0,0,0,0,0,0,0,0,0,0,0,0,0,0,0,0,0,0,0,0,0,0,0,0,0,0,0,0,0,0,0,0,0,0,0,0,0,0,0,0,0,0,0,0,0,0,0,0,0,0,0,0,0,0,0,0,0,4.0911,4.0912,0,4.0947,4.0948,4.0948,4.0896,4.0894,4.0892,4.089,4.0924,4.0926,4.0929,0,0,0,0,0,0,0,0,0,0,0,0,0,4.0793,4.0795,4.0911,4.0912,4.0912,4.0947,4.0948,4.0948,4.0896,4.0894,4.0891,4.0889,4.0923,4.0926,4.0929,0,0,0,0,0,0,0,0,0,0,0,0,0,4.0838,4.0796,4.0911,4.089,4.0889,4.0947,4.0948,4.0948,4.0896,4.0894,4.0891,4.0888,4.0922,4.0926,4.093,4.1009,0,0,4.0941,4.0943,0,0,0,0,0,0,0,0,4.0836,4.0842,4.0893,4.0892,4.089,4.0914,4.0918,4.0968,4.0897,4.0893,4.089,4.0887,4.0923,4.0926,4.0939,4.101,4.1012,4.0942,4.0944,4.0946,4.0947,0,0,0,0,0,0,0,4.0833,4.0841,4.0925,4.0894,4.0892,4.0878,4.0881,4.0927,4.0923,4.0894,4.089,4.0895,4.0921,4.0935,4.0939,4.1012,4.0942,4.0945,4.0948,4.0949,4.1149,4.1152,0,0,0,0,0,0,4.0832,4.0838,4.0924,4.0926,4.0856,4.0882,4.0886,4.0909,4.0922,4.0922,4.0897,4.0892,4.093,4.0935,4.094,4.1033,4.0946,4.0949,4.0952,4.1146,4.115,4.1153,0,0,0,0,0,0,4.083,4.0841,4.0923,4.0881,4.0891,4.0887,4.0914,4.0911,4.0925,4.0925,4.0924,4.0913,4.0928,4.0935,4.0992,4.1034,4.0951,4.0955,4.1142,4.1147,4.1151,4.1221,0,0,0,0,0,0,4.0827,4.084,4.0871,4.0883,4.0893,4.0975,4.0916,4.0914,4.0933,4.0927,4.0939,4.0939,4.0926,4.0986,4.0996,4.1038,4.0958,4.1139,4.1144,4.115,4.1215,4.1227,4.1237,0,0,0,0,0,4.0823,4.0889,4.0873,4.0884,4.0932,4.0978,4.0984,4.0969,4.0936,4.0967,4.0966,4.0938,4.1028,4.0993,4.1003,4.1047,4.1136,4.1143,4.1149,4.1209,4.1224,4.1237,0,0,0,0,0,0,4.0881,4.089,4.0873,4.0944,4.0961,4.0969,4.1007,4.0986,4.1011,4.1004,4.0984,4.0987,4.1049,4.1053,4.1014,4.1123,4.1076,4.1085,4.1118,4.1133,4.1144,4.1142,4.0961,0,0,0,0,0,4.0903,4.094,4.0945,4.1008,4.1017,4.1011,4.103,4.1018,4.1033,4.104,4.1044,4.1059,4.109,4.1112,4.1141,4.1215,4.1216,4.1249,4.1261,4.127,4.1278,4.1317,4.1332,4.1175,4.1175,4.1174,0,0,4.0947,4.0956,4.0981,4.102,4.1031,4.1069,4.1017,4.106,4.1087,4.1046,4.1101,4.1104,4.1119,4.1186,4.1215,4.1191,4.1322,4.1279,4.1286,4.1289,4.1326,4.1341,4.1354,4.1179,4.1178,4.1178,0,0,4.1047,4.1059,4.1112,4.1124,4.1143,4.1138,4.1151,4.1162,4.1163,4.1217,4.1187,4.1219,4.1273,4.1286,4.1299,4.1404,4.1378,4.1413,4.1473,4.1511,4.1524,4.1535,4.1572,4.1585,4.1421,4.1422,4.1422,0,4.11,4.1158,4.1142,4.1187,4.1204,4.1169,4.1222,4.1234,4.1261,4.1273,4.1246,4.1314,4.1322,4.139,4.1416,4.1428,4.1441,4.1412,4.1523,4.1534,4.1544,4.1579,4.1593,4.1426,4.1425,4.1425,4.1424,0,4.1221,4.1261,4.1302,4.1329,4.1351,4.14,4.139,4.1414,4.1399,4.1397,4.1452,4.146,4.149,4.1505,4.1491,4.1571,4.1556,4.1527,4.1479,4.1564,4.1596,4.1609,4.1432,4.143,4.1429,4.1428,0,0,4.136,4.1378,4.1393,4.1405,4.1422,4.1452,4.1498,4.1528,4.1549,4.1568,4.1606,4.1653,4.1626,4.1641,4.1627,4.1661,4.1742,4.1627,4.1627,4.1648,4.1831,4.1853,4.1869,4.1726,4.1728,4.173,4.183,0,4.146,4.1542,4.1529,4.1608,4.1644,4.1611,4.1651,4.1665,4.1664,4.1693,4.1691,4.1725,4.1686,4.1695,4.1727,4.1726,4.1779,4.1718,4.176,4.1762,4.1758,4.1886,4.191,4.2003,4.1842,4.1844,4.1846,0,4.1589,4.1613,4.1696,4.1707,4.1722,4.1758,4.1785,4.1814,4.1828,4.1825,4.1842,4.1822,4.1867,4.1818,4.1879,4.1838,4.1854,4.1856,4.1859,4.1863,4.1809,4.1893,4.2033,4.2047,4.1866,4.1864,4.1863,0,4.1682,4.1736,4.1792,4.1803,4.1817,4.1843,4.185,4.1862,4.1881,4.1903,4.1915,4.1942,4.1957,4.1977,4.1964,4.193,4.2028,4.1978,4.2025,4.2026,4.2048,4.2047,4.2192,4.2058,4.2058,4.2057,4.2057,0,4.1796,4.1847,4.1834,4.1869,4.1926,4.1908,4.1965,4.1967,4.1978,4.2012,4.1983,4.2015,4.1997,4.2027,4.2017,4.2069,4.2075,4.2073,4.207,4.2076,4.2076,4.2086,4.208,4.2061,4.206,4.2059,4.2059,0,4.191,4.1903,4.1962,4.197,4.1974,4.2015,4.2021,4.2053,4.2049,4.2092,4.2101,4.2095,4.2129,4.2118,4.2154,4.2147,4.2213,4.2202,4.2209,4.2206,4.2254,4.225,4.2412,4.2432,4.2284,4.2286,4.2287,0,4.1983,4.2022,4.2035,4.2056,4.2065,4.2099,4.2118,4.2102,4.2123,4.2143,4.2172,4.2203,4.2228,4.2283,4.2281,4.2308,4.2297,4.2352,4.2301,4.2306,4.2298,4.2296,4.23,4.2362,4.2364,4.2365,4.2366,0,4.2114,4.2108,4.2138,4.2166,4.219,4.2211,4.2229,4.2247,4.2232,4.2257,4.2292,4.2311,4.2348,4.2379,4.2404,4.2409,4.2386,4.2382,4.2395,4.2402,4.2404,4.2403,4.2237,4.2379,4.2378,4.2377,4.2376,4.2376,4.221,4.2243,4.2257,4.229,4.2303,4.232,4.235,4.2351,4.238,4.2409,4.2397,4.2437,4.245,4.248,4.2489,4.2519,4.2498,4.2516,4.252,4.2525,4.2531,4.2399,4.2523,4.2523,4.2523,4.2522,4.2522,0,4.2339,4.2346,4.2377,4.2404,4.243,4.2406,4.2425,4.2448,4.2483,4.2497,4.2522,4.2561,4.2591,4.2592,4.2619,4.2643,4.2633,4.2651,4.2649,4.2651,4.2549,4.2535,4.2659,4.2659,4.2659,4.2659,4.2659,4.2659,4.241,4.2465,4.2461,4.2521,4.2527,4.2567,4.2579,4.2595,4.2606,4.2652,4.2677,4.2677,4.2685,4.2713,4.2739,4.2738,4.275,4.2772,4.2767,4.2672,4.2658,4.2645,4.2633,4.2775,4.2775,4.2867,4.2868,4.2868]}]]